Вернуться в каталог

AEHF 2

USA 235

АктивенВоенныеGEO
NORAD 38254·PAYLOAD·🇺🇸 United States

Запущен May 4, 2012 с Cape Canaveral Space Force Station

Loading…

TLE

СвежийSource: Space-Track

Эпоха: Sep 14, 2026, 06:52 UTC

1 38254U 12019A   26257.28677770 -.00000141  00000-0  00000-0 0  9998
2 38254   6.8516  56.7726 0002610 133.2655 250.0293  1.00271695  7882

Отслеживайте AEHF 2 в реальном времени с AllMySat

Download on the App Store